Flag for New Zealand

Past Weather in Palmerston North, New Zealand — Yesterday and Last 2 Weeks

Now
56 °F

Cool.


Feels Like: 56 °F
Forecast: 70 / 46 °F
Wind: 2 mph from West

Location: Palmerston North AWS
Current Time: Oct 23, 2020 at 7:28:59 am
Latest Report: Oct 23, 2020 at 6:00 am
Visibility: 2 mi
Pressure30.24 "Hg
Humidity: 93%
Dew Point: 54 °F
Location of Palmerston NorthLocation

Past Weather in Palmerston North — Graph

°F

Palmerston North Temperature Yesterday

Maximum temperature yesterday: 66 °F (at 4:00 pm)
Minimum temperature yesterday: 53 °F (at 3:00 am)
Average temperature yesterday: 58 °F

High & Low Weather Summary for the Past Weeks

 TemperatureHumidityPressure
High70 °F (Oct 19, 2:00 pm)97% (Oct 13, 7:00 am)30.58 "Hg (Oct 13, 7:00 am)
Low40 °F (Oct 18, 4:00 am)43% (Oct 10, 4:00 pm)29.80 "Hg (Oct 19, 7:00 pm)
Average54 °F76%30.17 "Hg
* Reported Oct 8 6:00 am — Oct 23 6:00 am, Palmerston North. Weather by CustomWeather, © 2020

Note: Actual official high and low records may vary slightly from our data, if they occured in-between our weather recording intervals... More about our weather records

Palmerston North Weather History for the Previous 24 Hours

Scroll right to see more
 ConditionsComfort  
Time TempWeatherWind HumidityBarometerVisibility
6:00 am
Fri, Oct 23
56 °FCool.2 mph93%30.24 "Hg2 mi
5:00 am56 °FCool.3 mph91%30.23 "Hg12 mi
4:00 am56 °FCool.5 mph88%30.23 "Hg12 mi
3:00 am56 °FCool.5 mph90%30.22 "Hg12 mi
2:00 am56 °FCool.2 mph90%30.23 "Hg12 mi
1:00 am55 °FCool.3 mph91%30.24 "Hg12 mi
12:00 am54 °FCool.6 mph91%30.24 "Hg12 mi
11:00 pm
Thu, Oct 22
54 °FCool.3 mph92%30.23 "Hg12 mi
10:00 pm53 °FCool.2 mph91%30.22 "Hg12 mi
9:00 pm54 °FCool.3 mph87%30.20 "Hg12 mi
8:00 pm57 °FCool.6 mph83%30.18 "Hg12 mi
7:00 pm62 °FCool.8 mph74%30.16 "Hg12 mi
6:00 pm64 °FMild.12 mph72%30.16 "Hg12 mi
5:00 pm65 °FMild.12 mph68%30.15 "Hg12 mi
4:00 pm66 °FMild.12 mph64%30.15 "Hg12 mi
3:00 pm66 °FMild.12 mph70%30.16 "Hg12 mi
2:00 pm66 °FMild.12 mph67%30.17 "Hg12 mi
1:00 pm65 °FMild.9 mph68%30.17 "Hg12 mi
12:00 pm64 °FMild.8 mph68%30.19 "Hg12 mi
11:00 am63 °FMild.9 mph74%30.19 "Hg12 mi
10:00 am60 °FCool.9 mph75%30.20 "Hg12 mi
9:00 am58 °FCool.8 mph83%30.20 "Hg12 mi
8:00 am56 °FCool.6 mph84%30.19 "Hg12 mi
7:00 am53 °FCool.5 mph86%30.18 "Hg12 mi
Weather by CustomWeather, © 2020

See weather overview